Regional Weather Roundup
Issued by NWS

Home | Current Version | Previous Version | Text Only | Print | Product List | Glossary On
Versions: 1 2 3 4 5 6 7 8 9 10 11 12 13 14 15 16 17 18 19 20 21 22 23 24 25 26 27 28 29 30 31 32 33 34 35 36 37 38 39 40 41 42 43 44 45 46 47 48 49 50
000
ASUS44 KOUN 181610
RWROK

WEATHER ROUNDUP FOR OKLAHOMA
NATIONAL WEATHER SERVICE NORMAN OK
1100 AM CDT FRI APR 18 2014

NOTE: "FAIR" INDICATES FEW OR NO CLOUDS BELOW 12,000 FEET WITH NO
      SIGNIFICANT WEATHER AND/OR OBSTRUCTIONS TO VISIBILITY.

OKZ001>007-009>012-014-015-017-181700-
NORTHWEST OKLAHOMA AND THE PANHANDLE

CITY           SKY/WX    TMP DP  RH WIND       PRES   REMARKS
GAGE           SUNNY     59  42  53 S17       30.21F
ENID/VANCE AFB SUNNY     58  47  65 E8        30.26S
ENID/WOODRING  SUNNY     61  45  55 SE8       30.27S
$$

OKZ016-021>023-033>039-044-045-181700-
SOUTHWEST OKLAHOMA

CITY           SKY/WX    TMP DP  RH WIND       PRES   REMARKS
LAWTON/REGL    SUNNY     63  47  55 E8        30.25F
LAWTON/FT SILL SUNNY     63  46  53 SE9       30.24F
FREDERICK      CLOUDY    58  48  69 E6        30.23S
CLINTON        SUNNY     58  44  60 S8        30.27S
HOBART         PTSUNNY   60  46  59 S3        30.26S
ALTUS AFB      CLOUDY    56  49  75 S5        30.26S
$$

OKZ018>020-024>031-181700-
CENTRAL OKLAHOMA

CITY           SKY/WX    TMP DP  RH WIND       PRES   REMARKS
OKLAHOMA CITY  SUNNY     61  41  47 VRB7      30.27S
OKC/WILEY POST SUNNY     60  39  45 VRB3      30.27S
OKC/TINKER AFB SUNNY     64  43  46 E8        30.27S
STILLWATER     SUNNY     60  43  53 CALM      30.28R
GUTHRIE        SUNNY     61  42  49 SE7       30.27F HAZE
$$

OKZ008-013-054>072-181700-
NORTHEAST OKLAHOMA

CITY           SKY/WX    TMP DP  RH WIND       PRES   REMARKS
TULSA          SUNNY     61  47  59 NE3       30.27F
TULSA/JONES    SUNNY     63  45  51 NE5       30.28S
PONCA CITY     SUNNY     61  41  47 E6        30.28S
BARTLESVILLE   SUNNY     58  43  57 CALM      30.30F
MUSKOGEE       SUNNY     64  46  52 N5        30.28F
$$

OKZ032-040>043-046>053-073>077-181700-
SOUTH CENTRAL/SOUTHEAST OKLAHOMA

CITY           SKY/WX    TMP DP  RH WIND       PRES   REMARKS
ARDMORE/DWNTWN   N/A     63  43  48 CALM      30.26S
MCALESTER      MOSUNNY   64  44  48 CALM      30.27S
$$




USA.gov is the U.S. government's official web portal to all federal, state and local government web resources and services.